Location: Unspecified
(0.0000°N, 0.0000°E)
Time: 16:25:44
(UTC+00:00)

COSMOS-2414 - Pass Details

Date: 26 April 2024
Orbit: 906 x 966 km, 82.9° (Epoch: 15 May)

Event Time Altitude Azimuth Distance (km) Brightness Sun altitude
Exits shadow 02:30:43 - 96° (E) 2,830 8.9 -49.8°
Enters shadow 03:55:45 -28° 186° (S) 7,652 10.6 -29.6°
Maximum altitude 04:15:17 64° 273° (W) 1,004 5.7 -24.9°
